Date String (YYYY-MM-DD hh:mm:ss) UTC,Instrument flags,absolute air pressure of the measurement (hPa),sample flow rate (lpm),inlet stack bypass flow (lpm),air temperature of the measurement (°C),ambient temperature measured by the external sensor (°C),aerosol sample conditioner tube jacket temperature (°C),OPC LED temperature (°C),internal box temperature (°C),relative humidity of the measurement (%),span deviation,mass concentration of particles derived from Lorenz-Mie calculation of OPC scattering (μg/m³),mass concentration of particles derived from Lorenz-Mie calculation of OPC scattering (μg/m³),mass concentration of particles derived from Lorenz-Mie calculation of OPC scattering (μg/m³)
DateTimeUTC,F1_M11,P_M11,Q1_M11,Q2_M11,T1_M11,T2_M11,T3_M11,T4_M11,T5_M11,U1_M11,ZSPAN_M11,X2_M11,X0_M11,X1_M11
2024-02-21 10:00:00,SystemResetWarning,0826.9,4.99,000.00,023.9,023.2,000.0,032.4,025.7,16.2,0000.0,0001.89,0005.75,0001.34
2024-02-21 10:01:00,SystemResetWarning,0826.9,5.00,000.00,023.9,023.2,000.0,032.4,025.7,16.4,0000.0,0001.90,0005.89,0001.32
2024-02-21 10:02:00,SystemResetWarning,0826.8,5.01,000.00,023.9,023.2,000.0,032.4,025.7,16.5,0000.0,0001.89,0005.94,0001.31
2024-02-21 10:03:00,SystemResetWarning,0826.7,5.01,000.00,023.9,023.2,000.0,032.4,025.7,16.6,0000.0,0001.90,0006.10,0001.31
2024-02-21 10:04:00,SystemResetWarning,0826.6,5.00,000.00,023.9,023.1,000.0,032.4,025.7,16.6,0000.0,0001.92,0006.44,0001.31
2024-02-21 10:05:00,SystemResetWarning,0826.6,5.00,000.00,023.9,023.1,000.0,032.4,025.7,16.7,0000.0,0001.93,0006.49,0001.29
2024-02-21 10:06:00,SystemResetWarning,0826.6,5.00,000.00,023.9,023.1,000.0,032.4,025.7,16.7,0000.0,0001.96,0006.80,0001.27
2024-02-21 10:07:00,SystemResetWarning,0826.6,5.00,000.00,023.9,023.1,000.0,032.4,025.7,16.8,0000.0,0002.00,0006.25,0001.26
2024-02-21 10:08:00,SystemResetWarning,0826.6,5.00,000.00,023.9,023.1,000.0,032.4,025.7,16.8,0000.0,0002.00,0005.65,0001.24
2024-02-21 10:09:00,SystemResetWarning,0826.6,5.00,000.00,023.9,023.1,000.0,032.4,025.7,16.8,0000.0,0001.96,0006.57,0001.22
2024-02-21 10:10:00,SystemResetWarning,0826.6,5.00,000.00,023.9,023.1,000.0,032.4,025.6,16.6,0000.0,0001.99,0007.67,0001.23
2024-02-21 10:11:00,SystemResetWarning,0826.5,4.99,000.00,023.8,023.1,000.0,032.4,025.6,16.6,0000.0,0002.06,0008.31,0001.24
2024-02-21 10:12:00,SystemResetWarning,0826.5,5.00,000.00,023.8,023.1,000.0,032.4,025.6,16.5,0000.0,0002.12,0008.55,0001.24
2024-02-21 10:13:00,SystemResetWarning,0826.6,5.00,000.00,023.8,023.1,000.0,032.3,025.6,16.5,0000.0,0002.16,0008.54,0001.26
2024-02-21 10:14:00,SystemResetWarning,0826.6,4.99,000.00,023.8,023.0,000.0,032.3,025.6,16.5,0000.0,0002.21,0009.59,0001.28
2024-02-21 10:15:00,SystemResetWarning,0826.6,5.00,000.00,023.8,023.0,000.0,032.3,025.6,16.5,0000.0,0002.29,0009.63,0001.29
2024-02-21 10:16:00,SystemResetWarning,0826.6,5.00,000.00,023.8,023.0,000.0,032.3,025.5,16.4,0000.0,0002.33,0009.94,0001.32
2024-02-21 10:17:00,SystemResetWarning,0826.4,5.01,000.00,023.8,023.0,000.0,032.3,025.5,16.4,0000.0,0002.38,0010.36,0001.33
2024-02-21 10:18:00,SystemResetWarning,0826.3,5.00,000.00,023.7,023.0,000.0,032.3,025.5,16.4,0000.0,0002.40,0010.31,0001.36
2024-02-21 10:19:00,SystemResetWarning,0826.3,5.00,000.00,023.7,023.0,000.0,032.3,025.5,16.4,0000.0,0002.39,0010.57,0001.36
2024-02-21 10:20:00,SystemResetWarning,0826.4,5.00,000.00,023.7,023.0,000.0,032.3,025.5,16.5,0000.0,0002.44,0010.11,0001.38
2024-02-21 10:21:00,SystemResetWarning,0826.4,5.00,000.00,023.7,023.0,000.0,032.3,025.5,16.6,0000.0,0002.45,0009.39,0001.39
2024-02-21 10:22:00,SystemResetWarning,0826.4,5.00,000.00,023.7,023.0,000.0,032.3,025.5,16.6,0000.0,0002.32,0008.13,0001.38
2024-02-21 10:23:00,SystemResetWarning,0826.5,5.00,000.00,023.7,023.0,000.0,032.3,025.5,16.8,0000.0,0002.21,0007.88,0001.38
2024-02-21 10:24:00,SystemResetWarning,0826.6,4.99,000.00,023.7,023.0,000.0,032.3,025.5,16.9,0000.0,0002.15,0007.81,0001.35
2024-02-21 10:25:00,SystemResetWarning,0826.6,4.99,000.00,023.7,023.0,000.0,032.3,025.5,16.9,0000.0,0002.09,0006.51,0001.33
2024-02-21 10:26:00,SystemResetWarning,0826.5,5.00,000.00,023.7,023.0,000.0,032.2,025.5,16.6,0000.0,0002.00,0007.24,0001.30
2024-02-21 10:27:00,SystemResetWarning,0826.4,5.01,000.00,023.7,023.0,000.0,032.2,025.5,16.5,0000.0,0001.94,0006.77,0001.28
2024-02-21 10:28:00,SystemResetWarning,0826.4,5.01,000.00,023.7,023.0,000.0,032.2,025.5,16.6,0000.0,0001.88,0005.84,0001.26
2024-02-21 10:29:00,SystemResetWarning,0826.5,5.00,000.00,023.7,023.0,000.0,032.2,025.5,16.6,0000.0,0001.82,0005.85,0001.25
2024-02-21 10:30:00,SystemResetWarning,0826.6,4.99,000.00,023.7,023.0,000.0,032.2,025.5,16.6,0000.0,0001.81,0005.92,0001.25
2024-02-21 10:31:00,SystemResetWarning,0826.6,5.00,000.00,023.7,023.0,000.0,032.2,025.5,16.6,0000.0,0001.77,0005.58,0001.24
2024-02-21 10:32:00,SystemResetWarning,0826.6,5.00,000.00,023.7,023.0,000.0,032.2,025.5,16.6,0000.0,0001.72,0005.46,0001.23
2024-02-21 10:33:00,SystemResetWarning,0826.6,5.00,000.00,023.7,023.0,000.0,032.2,025.5,16.7,0000.0,0001.79,0005.55,0001.24
2024-02-21 10:34:00,SystemResetWarning,0826.5,5.00,000.00,023.7,023.0,000.0,032.2,025.5,16.7,0000.0,0001.87,0005.76,0001.26
2024-02-21 10:35:00,SystemResetWarning,0826.4,5.01,000.00,023.7,023.0,000.0,032.2,025.5,16.7,0000.0,0001.94,0007.42,0001.28
2024-02-21 10:36:00,SystemResetWarning,0826.4,5.01,000.00,023.7,023.0,000.0,032.2,025.5,16.7,0000.0,0001.92,0008.32,0001.29
2024-02-21 10:37:00,SystemResetWarning,0826.5,5.00,000.00,023.7,023.0,000.0,032.2,025.5,16.7,0000.0,0001.91,0008.01,0001.30
2024-02-21 10:38:00,SystemResetWarning,0826.6,4.99,000.00,023.7,023.0,000.0,032.2,025.5,16.6,0000.0,0001.93,0008.73,0001.31
2024-02-21 10:39:00,SystemResetWarning,0826.6,5.00,000.00,023.7,023.0,000.0,032.2,025.5,16.3,0000.0,0001.97,0008.88,0001.33
2024-02-21 10:40:00,SystemResetWarning,0826.6,5.00,000.00,023.7,023.0,000.0,032.2,025.5,16.3,0000.0,0001.98,0008.96,0001.33
2024-02-21 10:41:00,SystemResetWarning,0826.6,5.00,000.00,023.7,023.0,000.0,032.2,025.5,16.3,0000.0,0001.97,0008.66,0001.33
2024-02-21 10:42:00,SystemResetWarning,0826.4,5.01,000.00,023.7,022.9,000.0,032.2,025.5,16.4,0000.0,0002.00,0008.68,0001.32
2024-02-21 10:43:00,SystemResetWarning,0826.3,5.00,000.00,023.6,022.9,000.0,032.1,025.5,16.8,0000.0,0002.02,0008.75,0001.33
2024-02-21 10:44:00,SystemResetWarning,0826.3,5.00,000.00,023.6,022.9,000.0,032.1,025.5,16.9,0000.0,0001.98,0009.03,0001.32
2024-02-21 10:45:00,SystemResetWarning,0826.3,5.00,000.00,023.6,022.9,000.0,032.1,025.5,16.9,0000.0,0001.93,0008.92,0001.31
2024-02-21 10:46:00,SystemResetWarning,0826.4,5.00,000.00,023.6,022.9,000.0,032.1,025.5,16.7,0000.0,0001.90,0008.22,0001.29
2024-02-21 10:47:00,SystemResetWarning,0826.4,5.00,000.00,023.6,022.9,000.0,032.1,025.5,16.6,0000.0,0001.88,0006.87,0001.28
2024-02-21 10:48:00,SystemResetWarning,0826.4,5.00,000.00,023.6,022.9,000.0,032.1,025.5,16.5,0000.0,0001.93,0006.40,0001.25
2024-02-21 10:49:00,SystemResetWarning,0826.4,5.00,000.00,023.6,022.9,000.0,032.1,025.5,16.5,0000.0,0001.92,0005.59,0001.22
2024-02-21 10:50:00,SystemResetWarning,0826.3,5.00,000.00,023.6,022.9,000.0,032.1,025.5,16.3,0000.0,0001.88,0004.73,0001.20
2024-02-21 10:51:00,SystemResetWarning,0826.3,5.00,000.00,023.6,022.9,000.0,032.1,025.4,15.9,0000.0,0001.83,0004.34,0001.19
2024-02-21 10:52:00,SystemResetWarning,0826.3,5.00,000.00,023.6,022.9,000.0,032.1,025.5,16.0,0000.0,0001.86,0005.32,0001.19
2024-02-21 10:53:00,SystemResetWarning,0826.2,5.00,000.00,023.6,022.9,000.0,032.1,025.5,16.0,0000.0,0001.88,0005.31,0001.21
2024-02-21 10:54:00,SystemResetWarning,0826.2,5.00,000.00,023.6,022.9,000.0,032.1,025.5,16.2,0000.0,0001.89,0005.36,0001.21
2024-02-21 10:55:00,SystemResetWarning,0826.2,5.00,000.00,023.6,022.9,000.0,032.1,025.4,16.3,0000.0,0001.92,0004.87,0001.21
2024-02-21 10:56:00,SystemResetWarning,0826.2,5.00,000.00,023.6,022.8,000.0,032.1,025.4,16.5,0000.0,0001.98,0005.09,0001.20
2024-02-21 10:57:00,SystemResetWarning,0826.3,5.00,000.00,023.5,022.8,000.0,032.1,025.4,16.7,0000.0,0001.94,0005.17,0001.19
2024-02-21 10:58:00,SystemResetWarning,0826.3,5.00,000.00,023.5,022.8,000.0,032.1,025.3,16.8,0000.0,0001.93,0005.64,0001.19
2024-02-21 10:59:00,SystemResetWarning,0826.2,5.00,000.00,023.5,022.8,000.0,032.1,025.3,16.6,0000.0,0001.86,0006.79,0001.20
